Time,TemperatureF,DewpointF,PressureIn,WindDirection,WindDirectionDegrees,WindSpeedMPH,WindSpeedGustMPH,Humidity,HourlyPrecipIn,Conditions,Clouds,dailyrainin,SoftwareType,DateUTC
2013-06-17 00:11:00,71.2,70.6,29.85,ESE,112,0.0,-999.0,98,-99.99,,,0.00,Acu-Link.com,2013-06-17 04:11:00,
2013-06-17 00:27:00,71.4,70.8,29.85,ESE,112,0.0,-999.0,98,-99.99,,,0.00,Acu-Link.com,2013-06-17 04:27:00,
2013-06-17 00:42:00,71.6,71.0,29.85,ESE,112,0.0,-999.0,98,-99.99,,,0.00,Acu-Link.com,2013-06-17 04:42:00,
2013-06-17 00:57:00,71.6,71.0,29.85,East,90,0.0,-999.0,98,-99.99,,,0.00,Acu-Link.com,2013-06-17 04:57:00,
2013-06-17 01:13:00,71.4,70.8,29.86,NE,45,0.0,-999.0,98,-99.99,,,0.00,Acu-Link.com,2013-06-17 05:13:00,
2013-06-17 01:28:00,71.2,70.6,29.87,South,180,0.0,-999.0,98,-99.99,,,0.00,Acu-Link.com,2013-06-17 05:28:00,
2013-06-17 01:43:00,71.2,70.6,29.86,ENE,67,0.0,-999.0,98,-99.99,,,0.00,Acu-Link.com,2013-06-17 05:43:00,
2013-06-17 01:58:00,71.2,70.6,29.86,North,0,1.1,-999.0,98,-99.99,,,0.00,Acu-Link.com,2013-06-17 05:58:00,
2013-06-17 02:13:00,71.1,70.5,29.86,NNE,22,0.0,-999.0,98,-99.99,,,0.00,Acu-Link.com,2013-06-17 06:13:00,
2013-06-17 02:29:00,70.9,70.3,29.85,East,90,0.0,-999.0,98,-99.99,,,0.00,Acu-Link.com,2013-06-17 06:29:00,
2013-06-17 02:44:00,70.9,70.3,29.86,East,90,0.0,-999.0,98,-99.99,,,0.00,Acu-Link.com,2013-06-17 06:44:00,
2013-06-17 02:59:00,70.9,70.3,29.85,SW,225,0.0,-999.0,98,-99.99,,,0.00,Acu-Link.com,2013-06-17 06:59:00,
2013-06-17 03:15:00,70.7,70.1,29.85,WNW,292,0.0,-999.0,98,-99.99,,,0.00,Acu-Link.com,2013-06-17 07:15:00,
2013-06-17 03:30:00,70.5,69.9,29.84,NNW,337,0.0,-999.0,98,-99.99,,,0.00,Acu-Link.com,2013-06-17 07:30:00,
2013-06-17 03:45:00,70.3,69.7,29.84,East,90,0.0,-999.0,98,-99.99,,,0.00,Acu-Link.com,2013-06-17 07:45:00,
2013-06-17 04:01:00,70.3,69.7,29.84,East,90,0.0,-999.0,98,-99.99,,,0.00,Acu-Link.com,2013-06-17 08:01:00,
2013-06-17 04:16:00,70.3,69.7,29.84,ESE,112,1.7,-999.0,98,-99.99,,,0.00,Acu-Link.com,2013-06-17 08:16:00,
2013-06-17 04:31:00,70.2,69.6,29.84,ENE,67,1.7,-999.0,98,-99.99,,,0.00,Acu-Link.com,2013-06-17 08:31:00,
2013-06-17 04:46:00,70.2,69.6,29.83,NNE,22,0.0,-999.0,98,-99.99,,,0.00,Acu-Link.com,2013-06-17 08:46:00,
2013-06-17 05:01:00,70.0,69.4,29.83,NNE,22,0.0,-999.0,98,-99.99,,,0.00,Acu-Link.com,2013-06-17 09:01:00,
2013-06-17 05:16:00,70.0,69.4,29.83,WSW,247,0.0,-999.0,98,-99.99,,,0.00,Acu-Link.com,2013-06-17 09:16:00,
2013-06-17 05:31:00,69.8,69.2,29.84,North,0,0.0,-999.0,98,-99.99,,,0.00,Acu-Link.com,2013-06-17 09:31:00,
2013-06-17 05:47:00,69.8,69.2,29.85,ENE,67,0.0,-999.0,98,-99.99,,,0.00,Acu-Link.com,2013-06-17 09:47:00,
2013-06-17 06:02:00,69.8,69.2,29.84,NW,315,0.0,-999.0,98,-99.99,,,0.00,Acu-Link.com,2013-06-17 10:02:00,
2013-06-17 06:17:00,69.8,69.2,29.84,ENE,67,0.0,-999.0,98,-99.99,,,0.00,Acu-Link.com,2013-06-17 10:17:00,
2013-06-17 06:33:00,69.8,69.2,29.84,ENE,67,0.0,-999.0,98,-99.99,,,0.00,Acu-Link.com,2013-06-17 10:33:00,
2013-06-17 06:48:00,70.0,69.4,29.85,WNW,292,0.0,-999.0,98,-99.99,,,0.00,Acu-Link.com,2013-06-17 10:48:00,
2013-06-17 07:03:00,70.0,69.4,29.84,SW,225,0.0,-999.0,98,-99.99,,,0.00,Acu-Link.com,2013-06-17 11:03:00,
2013-06-17 07:19:00,70.0,69.4,29.84,East,90,0.0,-999.0,98,-99.99,,,0.00,Acu-Link.com,2013-06-17 11:19:00,
2013-06-17 07:34:00,70.2,69.6,29.84,NE,45,0.0,-999.0,98,-99.99,,,0.00,Acu-Link.com,2013-06-17 11:34:00,
2013-06-17 07:49:00,70.5,69.9,29.84,NW,315,0.0,-999.0,98,-99.99,,,0.00,Acu-Link.com,2013-06-17 11:49:00,
2013-06-17 08:04:00,71.2,70.6,29.85,South,180,0.0,-999.0,98,-99.99,,,0.00,Acu-Link.com,2013-06-17 12:04:00,
2013-06-17 08:20:00,71.6,71.0,29.85,WNW,292,0.0,-999.0,98,-99.99,,,0.00,Acu-Link.com,2013-06-17 12:20:00,
2013-06-17 08:35:00,71.8,70.9,29.86,West,270,0.0,-999.0,97,-99.99,,,0.00,Acu-Link.com,2013-06-17 12:35:00,
2013-06-17 08:50:00,71.8,70.0,29.86,West,270,0.0,-999.0,94,-99.99,,,0.00,Acu-Link.com,2013-06-17 12:50:00,
2013-06-17 09:06:00,71.8,71.2,29.87,SW,225,0.0,-999.0,98,-99.99,,,0.00,Acu-Link.com,2013-06-17 13:06:00,
2013-06-17 09:21:00,71.2,70.6,29.86,NE,45,2.2,-999.0,98,-99.99,,,0.01,Acu-Link.com,2013-06-17 13:21:00,
2013-06-17 09:36:00,71.1,70.2,29.86,WNW,292,0.0,-999.0,97,-99.99,,,0.03,Acu-Link.com,2013-06-17 13:36:00,
2013-06-17 09:52:00,71.2,70.6,29.86,South,180,0.0,-999.0,98,-99.99,,,0.09,Acu-Link.com,2013-06-17 13:52:00,
2013-06-17 10:07:00,72.5,71.9,29.85,SSE,157,0.0,-999.0,98,-99.99,,,0.09,Acu-Link.com,2013-06-17 14:07:00,
2013-06-17 10:22:00,72.3,71.7,29.84,ENE,67,1.1,-999.0,98,-99.99,,,0.09,Acu-Link.com,2013-06-17 14:22:00,
2013-06-17 10:37:00,73.8,73.2,29.85,ESE,112,2.2,-999.0,98,-99.99,,,0.09,Acu-Link.com,2013-06-17 14:37:00,
2013-06-17 10:53:00,73.6,73.0,29.85,East,90,0.0,-999.0,98,-99.99,,,0.10,Acu-Link.com,2013-06-17 14:53:00,
2013-06-17 11:08:00,73.9,73.3,29.85,East,90,0.0,-999.0,98,-99.99,,,0.11,Acu-Link.com,2013-06-17 15:08:00,
2013-06-17 11:23:00,75.4,74.5,29.86,SSE,157,1.7,-999.0,97,-99.99,,,0.11,Acu-Link.com,2013-06-17 15:23:00,
2013-06-17 11:39:00,74.5,72.0,29.85,ESE,112,1.7,-999.0,92,-99.99,,,0.11,Acu-Link.com,2013-06-17 15:39:00,
2013-06-17 11:54:00,78.4,74.2,29.86,North,0,1.7,-999.0,87,-99.99,,,0.11,Acu-Link.com,2013-06-17 15:54:00,
2013-06-17 12:09:00,77.0,72.5,29.85,ESE,112,1.7,-999.0,86,-99.99,,,0.11,Acu-Link.com,2013-06-17 16:09:00,
2013-06-17 12:25:00,76.5,72.3,29.84,SE,135,0.0,-999.0,87,-99.99,,,0.11,Acu-Link.com,2013-06-17 16:25:00,
2013-06-17 12:40:00,76.5,72.7,29.86,West,270,0.0,-999.0,88,-99.99,,,0.11,Acu-Link.com,2013-06-17 16:40:00,
2013-06-17 12:55:00,77.2,72.7,29.86,East,90,1.7,-999.0,86,-99.99,,,0.11,Acu-Link.com,2013-06-17 16:55:00,
2013-06-17 13:10:00,77.4,72.9,29.85,SE,135,0.0,-999.0,86,-99.99,,,0.11,Acu-Link.com,2013-06-17 17:10:00,
2013-06-17 13:25:00,80.2,74.2,29.85,ESE,112,2.2,-999.0,82,-99.99,,,0.11,Acu-Link.com,2013-06-17 17:25:00,
2013-06-17 13:41:00,79.3,73.3,29.84,East,90,0.0,-999.0,82,-99.99,,,0.11,Acu-Link.com,2013-06-17 17:41:00,
2013-06-17 13:56:00,81.7,74.5,29.85,West,270,1.1,-999.0,79,-99.99,,,0.11,Acu-Link.com,2013-06-17 17:56:00,
2013-06-17 14:11:00,80.1,73.0,29.83,SSE,157,2.2,-999.0,79,-99.99,,,0.11,Acu-Link.com,2013-06-17 18:11:00,
2013-06-17 14:27:00,80.4,73.3,29.81,ESE,112,2.2,-999.0,79,-99.99,,,0.11,Acu-Link.com,2013-06-17 18:27:00,
2013-06-17 14:42:00,79.7,72.6,29.80,West,270,0.0,-999.0,79,-99.99,,,0.11,Acu-Link.com,2013-06-17 18:42:00,
2013-06-17 14:57:00,82.9,73.3,29.80,NNE,22,1.7,-999.0,73,-99.99,,,0.11,Acu-Link.com,2013-06-17 18:57:00,
2013-06-17 15:13:00,84.0,72.7,29.80,SW,225,1.7,-999.0,69,-99.99,,,0.11,Acu-Link.com,2013-06-17 19:13:00,
2013-06-17 15:28:00,83.7,72.0,29.79,ESE,112,1.1,-999.0,68,-99.99,,,0.11,Acu-Link.com,2013-06-17 19:28:00,
2013-06-17 15:43:00,84.2,72.9,29.79,South,180,2.2,-999.0,69,-99.99,,,0.11,Acu-Link.com,2013-06-17 19:43:00,
2013-06-17 15:58:00,83.7,72.9,29.77,ESE,112,2.2,-999.0,70,-99.99,,,0.11,Acu-Link.com,2013-06-17 19:58:00,
2013-06-17 16:13:00,84.2,73.3,29.78,ESE,112,1.1,-999.0,70,-99.99,,,0.11,Acu-Link.com,2013-06-17 20:13:00,
2013-06-17 16:29:00,83.3,72.9,29.78,North,0,2.7,-999.0,71,-99.99,,,0.11,Acu-Link.com,2013-06-17 20:29:00,
2013-06-17 16:44:00,82.0,72.9,29.78,SSE,157,1.1,-999.0,74,-99.99,,,0.11,Acu-Link.com,2013-06-17 20:44:00,
2013-06-17 16:59:00,82.4,72.9,29.78,SE,135,0.0,-999.0,73,-99.99,,,0.11,Acu-Link.com,2013-06-17 20:59:00,
2013-06-17 17:14:00,81.9,74.0,29.78,SSE,157,0.0,-999.0,77,-99.99,,,0.11,Acu-Link.com,2013-06-17 21:14:00,
2013-06-17 17:30:00,82.4,74.8,29.78,South,180,0.0,-999.0,78,-99.99,,,0.11,Acu-Link.com,2013-06-17 21:30:00,
2013-06-17 17:45:00,82.8,74.4,29.77,ESE,112,0.0,-999.0,76,-99.99,,,0.11,Acu-Link.com,2013-06-17 21:45:00,
2013-06-17 18:00:00,79.3,72.6,29.80,WSW,247,5.3,-999.0,80,-99.99,,,0.12,Acu-Link.com,2013-06-17 22:00:00,
2013-06-17 18:15:00,74.7,70.9,29.81,South,180,0.0,-999.0,88,-99.99,,,0.21,Acu-Link.com,2013-06-17 22:15:00,
2013-06-17 18:31:00,73.2,71.0,29.79,WNW,292,0.0,-999.0,93,-99.99,,,0.31,Acu-Link.com,2013-06-17 22:31:00,
2013-06-17 18:46:00,72.7,72.1,29.78,SSW,202,0.0,-999.0,98,-99.99,,,0.31,Acu-Link.com,2013-06-17 22:46:00,
2013-06-17 19:01:00,73.0,72.4,29.77,WNW,292,0.0,-999.0,98,-99.99,,,0.31,Acu-Link.com,2013-06-17 23:01:00,
2013-06-17 19:16:00,73.2,72.6,29.77,SSW,202,2.2,-999.0,98,-99.99,,,0.31,Acu-Link.com,2013-06-17 23:16:00,
2013-06-17 19:32:00,73.0,72.4,29.77,East,90,0.0,-999.0,98,-99.99,,,0.31,Acu-Link.com,2013-06-17 23:32:00,
2013-06-17 19:47:00,72.5,71.9,29.76,ESE,112,0.0,-999.0,98,-99.99,,,0.31,Acu-Link.com,2013-06-17 23:47:00,
2013-06-17 20:02:00,72.5,71.9,29.76,NNE,22,0.0,-999.0,98,-99.99,,,0.31,Acu-Link.com,2013-06-18 00:02:00,
2013-06-17 20:17:00,72.3,71.7,29.77,NNE,22,0.0,-999.0,98,-99.99,,,0.31,Acu-Link.com,2013-06-18 00:17:00,
2013-06-17 20:33:00,71.8,71.2,29.77,South,180,0.0,-999.0,98,-99.99,,,0.31,Acu-Link.com,2013-06-18 00:33:00,
2013-06-17 20:48:00,71.4,70.8,29.77,ESE,112,0.0,-999.0,98,-99.99,,,0.31,Acu-Link.com,2013-06-18 00:48:00,
2013-06-17 21:03:00,71.1,70.5,29.77,SSE,157,0.0,-999.0,98,-99.99,,,0.31,Acu-Link.com,2013-06-18 01:03:00,
2013-06-17 21:18:00,70.9,70.3,29.79,SW,225,2.7,-999.0,98,-99.99,,,0.31,Acu-Link.com,2013-06-18 01:18:00,
2013-06-17 21:34:00,70.5,69.9,29.77,ENE,67,0.0,-999.0,98,-99.99,,,0.37,Acu-Link.com,2013-06-18 01:34:00,
2013-06-17 21:49:00,70.2,69.6,29.77,West,270,0.0,-999.0,98,-99.99,,,0.37,Acu-Link.com,2013-06-18 01:49:00,
2013-06-17 22:04:00,70.2,69.6,29.79,SSW,202,0.0,-999.0,98,-99.99,,,0.37,Acu-Link.com,2013-06-18 02:04:00,
2013-06-17 22:19:00,70.0,69.4,29.78,NE,45,0.0,-999.0,98,-99.99,,,0.41,Acu-Link.com,2013-06-18 02:19:00,
2013-06-17 22:34:00,69.6,69.0,29.76,NE,45,1.1,-999.0,98,-99.99,,,0.41,Acu-Link.com,2013-06-18 02:34:00,
2013-06-17 22:50:00,69.6,69.0,29.75,WNW,292,0.0,-999.0,98,-99.99,,,0.41,Acu-Link.com,2013-06-18 02:50:00,
2013-06-17 23:05:00,69.4,68.8,29.75,ENE,67,0.0,-999.0,98,-99.99,,,0.41,Acu-Link.com,2013-06-18 03:05:00,
2013-06-17 23:20:00,69.3,68.7,29.74,NNW,337,0.0,-999.0,98,-99.99,,,0.41,Acu-Link.com,2013-06-18 03:20:00,
2013-06-17 23:36:00,69.3,68.7,29.73,NNW,337,0.0,-999.0,98,-99.99,,,0.41,Acu-Link.com,2013-06-18 03:36:00,
2013-06-17 23:51:00,69.1,68.5,29.73,West,270,0.0,-999.0,98,-99.99,,,0.41,Acu-Link.com,2013-06-18 03:51:00,